Simultaneous Nadir Overpasses (SNOs) Predictions

Prediction of SNOs between METOP-B and TERRA Satellite Orbit:

Table of predicted SNOs for the next 14.0 days since TLE Epoch: 10/11/2013
Index Date (METOP-B) Time (METOP-B) Lat,Lon (METOP-B) SZA (METOP-B ) Date (TERRA) Time (TERRA) Lat,Lon (TERRA) SZA (TERRA ) Distance(km) Time Diff (sec)
1 10/13/2013 01:06:13 81.31,-149.67 92.14 10/13/2013 01:06:50 81.30,-149.72 92.15 1.09 37
2 10/13/2013 01:56:52 -81.31, 18.06 87.80 10/13/2013 01:56:16 -81.32, 18.20 87.80 2.44 36
3 10/15/2013 20:40:33 81.31, -83.27 93.20 10/15/2013 20:41:00 81.31, -83.07 93.24 3.32 27
4 10/15/2013 21:31:12 -81.31, 84.47 86.74 10/15/2013 21:30:27 -81.31, 84.50 86.77 0.72 45
5 10/18/2013 16:14:53 81.31, -16.53 94.28 10/18/2013 16:15:11 81.32, -16.49 94.30 1.08 18
6 10
